GW3953 Weather Reports


time (UTC)temp
C
wind
direction
speed
KPH
gust
KPH
rain 1hr
cm
rain 24hr
cm
rain mn
cm
humidity
%
barometer
mb
20260504090134 8 287 0.0 0.0 0.00 0.00 0.00 80 1048.4
20260504081535 9 287 0.0 0.0 0.00 0.00 0.00 75 1048.1
20260504081034 10 287 0.0 0.0 0.00 0.00 0.00 75 1047.7
20260504080534 10 287 0.0 0.0 0.00 0.00 0.00 74 1047.7
20260504070234 10 287 0.0 0.0 0.00 0.00 0.00 70 1048.1
20260504060134 11 287 0.0 0.0 0.00 0.00 0.00 70 1048.8
20260504050535 11 287 0.0 0.0 0.00 0.00 0.00 68 1049.1
20260504045534 11 287 0.0 0.0 0.00 0.00 0.00 67 1049.1
20260504045034 11 287 0.0 0.0 0.00 0.00 0.00 66 1049.1
20260504044534 11 287 0.0 0.0 0.00 0.00 0.00 66 1049.1
20260504044034 12 287 0.0 0.0 0.00 0.00 0.00 65 1049.1
20260504043534 12 287 0.0 0.0 0.00 0.00 0.00 65 1049.1
20260504043034 12 287 0.0 0.0 0.00 0.00 0.00 64 1049.1
20260504042434 12 287 0.0 0.0 0.00 0.00 0.00 62 1049.1
20260504041934 13 287 0.0 0.0 0.00 0.00 0.00 61 1049.1
20260504041434 13 287 0.0 0.0 0.00 0.00 0.00 59 1049.1
20260504040934 13 287 0.0 0.0 0.00 0.00 0.00 59 1049.1
20260504040434 13 287 0.0 0.0 0.00 0.00 0.00 59 1049.1
20260504035934 13 287 0.0 0.0 0.00 0.00 0.00 59 1049.1
20260504035434 13 287 0.0 0.0 0.00 0.00 0.00 60 1049.1
20260504034834 13 287 0.0 0.0 0.00 0.00 0.00 60 1049.1
20260504034234 13 286 0.0 0.0 0.00 0.00 0.00 60 1049.1
20260504033634 13 288 0.0 0.0 0.00 0.00 0.00 61 1049.1
20260504033135 13 288 0.0 0.0 0.00 0.00 0.00 60 1049.1
20260504032634 13 288 0.0 0.0 0.00 0.00 0.00 60 1049.1
20260504032135 14 288 0.0 0.0 0.00 0.00 0.00 60 1049.1
20260504031634 14 288 0.0 0.0 0.00 0.00 0.00 59 1049.1
20260504031034 14 288 0.0 0.0 0.00 0.00 0.00 58 1048.8
20260504030534 15 288 0.0 0.0 0.00 0.00 0.00 57 1048.8
20260504030034 15 288 0.0 0.0 0.00 0.00 0.00 57 1048.8
20260504025535 15 289 0.0 0.0 0.00 0.00 0.00 56 1048.8
20260504025033 15 254 0.0 0.0 0.00 0.00 0.00 56 1048.4
20260504024534 15 254 0.0 0.0 0.00 0.00 0.00 57 1048.4
20260504023934 15 254 0.0 0.0 0.00 0.00 0.00 57 1048.4
20260504023434 15 254 0.0 0.0 0.00 0.00 0.00 57 1048.8
20260504022833 15 254 0.0 0.0 0.00 0.00 0.00 57 1048.8
20260504022234 15 253 0.0 0.0 0.00 0.00 0.00 57 1048.8
20260504021734 15 263 0.0 0.0 0.00 0.00 0.00 56 1048.4
20260504021233 15 252 0.0 0.0 0.00 0.00 0.00 56 1048.4
20260504020734 15 252 0.0 0.0 0.00 0.00 0.00 55 1048.4
20260504020234 15 261 0.0 0.0 0.00 0.00 0.00 55 1048.4
20260504015734 15 261 0.0 0.0 0.00 0.00 0.00 54 1048.4
20260504015135 15 261 0.0 0.0 0.00 0.00 0.00 54 1048.4
20260504014634 15 261 0.0 0.0 0.00 0.00 0.00 54 1048.4
20260504014135 15 261 0.0 0.0 0.00 0.00 0.00 54 1048.4
20260504013633 15 261 0.0 0.0 0.00 0.00 0.00 55 1048.4
20260504013134 15 241 0.0 0.0 0.00 0.00 0.00 55 1048.4
20260504012634 15 241 0.0 0.0 0.00 0.00 0.00 56 1048.1
20260504012134 15 241 0.0 0.0 0.00 0.00 0.00 56 1048.1
20260504011635 15 241 0.0 0.0 0.00 0.00 0.00 55 1048.1
20260504011135 15 241 0.0 0.0 0.00 0.00 0.00 55 1048.1
20260504010634 16 241 0.0 0.0 0.00 0.00 0.00 54 1048.1
20260504010134 16 241 0.0 0.0 0.00 0.00 0.00 53 1048.1
20260504005634 16 241 0.0 0.0 0.00 0.00 0.00 52 1048.1
20260504005134 16 241 0.0 0.0 0.00 0.00 0.00 51 1048.1
20260504004634 16 241 0.0 0.0 0.00 0.00 0.00 51 1048.1
20260504004134 17 241 0.0 0.0 0.00 0.00 0.00 50 1048.1
20260504003634 17 241 0.0 0.0 0.00 0.00 0.00 50 1048.1
20260504003134 17 241 0.0 0.0 0.00 0.00 0.00 50 1047.7
20260504002634 17 241 0.0 0.0 0.00 0.00 0.00 48 1047.7
20260504002034 17 241 0.0 0.0 0.00 0.00 0.00 48 1047.7
20260504001534 17 241 0.0 0.0 0.00 0.00 0.00 48 1047.7
20260504001034 17 241 0.0 0.0 0.00 0.00 0.00 48 1047.7
20260504000534 17 241 0.0 0.0 0.00 0.00 0.00 47 1047.7
20260504000034 18 241 0.0 0.0 0.00 0.00 0.00 48 1047.7
20260503235534 18 241 0.0 0.0 0.00 0.00 0.00 46 1047.7
20260503235033 18 241 0.0 0.0 0.00 0.00 0.00 46 1047.7
20260503234534 18 241 0.0 0.0 0.00 0.00 0.00 45 1047.7
20260503234034 18 241 0.0 0.0 0.00 0.00 0.00 47 1047.7
20260503233535 18 241 0.0 0.0 0.00 0.00 0.00 45 1047.7
20260503233034 18 231 0.0 0.0 0.00 0.00 0.00 45 1048.1
20260503232534 18 231 0.0 0.0 0.00 0.00 0.00 43 1048.1
20260503232034 19 230 0.0 0.0 0.00 0.00 0.00 43 1048.1
20260503231434 19 232 0.0 0.0 0.00 0.00 0.00 42 1048.1
20260503230734 20 206 0.0 0.0 0.00 0.00 0.00 40 1048.1
20260503230233 20 244 0.0 0.0 0.00 0.00 0.00 41 1048.1
20260503225734 19 244 0.0 0.0 0.00 0.00 0.00 41 1048.1
20260503225234 19 244 0.0 0.0 0.00 0.00 0.00 41 1048.1
20260503224734 19 243 0.0 0.0 0.00 0.00 0.00 40 1048.1
20260503224234 19 250 0.0 0.0 0.00 0.00 0.00 39 1048.1
20260503223734 19 268 0.0 0.0 0.00 0.00 0.00 40 1048.4
20260503223234 19 274 0.0 0.0 0.00 0.00 0.00 39 1048.4
20260503222734 20 274 0.0 0.0 0.00 0.00 0.00 38 1048.4
20260503222234 20 277 0.0 0.0 0.00 0.00 0.00 40 1048.4
20260503221734 20 278 0.0 0.0 0.00 0.00 0.00 38 1048.4
20260503221234 20 288 0.0 0.0 0.00 0.00 0.00 38 1048.4
20260503220734 20 247 0.0 0.0 0.00 0.00 0.00 36 1048.4
20260503220233 20 245 0.0 0.0 0.00 0.00 0.00 36 1048.4
20260503215734 20 248 0.0 0.0 0.00 0.00 0.00 36 1048.4
20260503215234 20 249 0.0 0.0 0.00 0.00 0.00 38 1048.4
20260503214634 20 249 0.0 0.0 0.00 0.00 0.00 34 1048.4
20260503214135 20 249 0.0 0.0 0.00 0.00 0.00 34 1048.4
20260503213634 20 225 0.0 0.0 0.00 0.00 0.00 35 1048.4
20260503213134 20 224 0.0 0.0 0.00 0.00 0.00 34 1048.4
20260503212634 21 248 0.0 0.0 0.00 0.00 0.00 35 1048.8
20260503212134 21 151 0.0 0.0 0.00 0.00 0.00 35 1048.8
20260503211634 20 29 0.0 0.0 0.00 0.00 0.00 34 1048.8
20260503211134 20 247 0.0 0.0 0.00 0.00 0.00 32 1048.8
20260503210534 20 158 0.0 0.0 0.00 0.00 0.00 35 1049.1
20260503205935 20 14 0.0 1.6 0.00 0.00 0.00 32 1049.1
20260503205434 20 8 0.0 0.0 0.00 0.00 0.00 32 1049.1
20260503204933 20 122 0.0 0.0 0.00 0.00 0.00 33 1049.1
20260503204434 20 188 0.0 0.0 0.00 0.00 0.00 33 1049.1
20260503203934 20 155 0.0 0.0 0.00 0.00 0.00 33 1049.1
20260503203434 20 293 0.0 0.0 0.00 0.00 0.00 33 1049.4
20260503202934 20 101 0.0 0.0 0.00 0.00 0.00 35 1049.4
20260503202434 20 22 0.0 0.0 0.00 0.00 0.00 35 1049.4
20260503201934 20 168 0.0 0.0 0.00 0.00 0.00 38 1049.4
20260503201434 20 188 0.0 0.0 0.00 0.00 0.00 37 1049.4
20260503200934 20 247 0.0 0.0 0.00 0.00 0.00 38 1049.8
20260503200434 20 129 0.0 0.0 0.00 0.00 0.00 38 1049.8
20260503195935 20 264 0.0 1.6 0.00 0.00 0.00 39 1049.8
20260503195433 20 157 0.0 0.0 0.00 0.00 0.00 39 1049.8
20260503194935 20 320 0.0 0.0 0.00 0.00 0.00 38 1050.1
20260503194434 20 23 0.0 0.0 0.00 0.00 0.00 39 1050.1
20260503193833 20 233 0.0 1.6 0.00 0.00 0.00 39 1050.1
20260503193233 19 163 0.0 1.6 0.00 0.00 0.00 39 1050.1
20260503192734 18 166 0.0 0.0 0.00 0.00 0.00 40 1050.5
20260503192234 18 215 0.0 0.0 0.00 0.00 0.00 38 1050.5
20260503191633 18 24 0.0 0.0 0.00 0.00 0.00 38 1050.8
20260503191134 18 284 0.0 0.0 0.00 0.00 0.00 39 1050.8
20260503190534 18 144 0.0 0.0 0.00 0.00 0.00 39 1050.8
20260503185934 18 246 0.0 0.0 0.00 0.00 0.00 38 1051.1
20260503185434 18 214 0.0 1.6 0.00 0.00 0.00 41 1051.1
20260503184934 18 274 0.0 0.0 0.00 0.00 0.00 40 1051.1
20260503184435 18 274 0.0 0.0 0.00 0.00 0.00 39 1051.1
20260503183934 18 181 0.0 0.0 0.00 0.00 0.00 41 1051.1
20260503183434 18 244 0.0 0.0 0.00 0.00 0.00 41 1051.1
20260503182934 17 250 0.0 0.0 0.00 0.00 0.00 42 1051.1
20260503182434 17 24 0.0 0.0 0.00 0.00 0.00 42 1051.1
20260503181934 17 228 0.0 0.0 0.00 0.00 0.00 41 1051.5
20260503181434 17 239 0.0 0.0 0.00 0.00 0.00 43 1051.5
20260503180734 17 210 0.0 0.0 0.00 0.00 0.00 41 1051.5
20260503180134 17 259 0.0 0.0 0.00 0.00 0.00 43 1051.5
20260503175435 17 25 0.0 0.0 0.00 0.00 0.00 43 1051.8
20260503174734 16 207 0.0 1.6 0.00 0.00 0.00 44 1051.8
20260503174034 16 247 0.0 1.6 0.00 0.00 0.00 45 1051.8
20260503173534 16 208 0.0 0.0 0.00 0.00 0.00 46 1052.1
20260503173033 16 13 0.0 0.0 0.00 0.00 0.00 45 1052.1
20260503172534 16 332 0.0 1.6 0.00 0.00 0.00 46 1052.1
20260503172034 16 350 0.0 0.0 0.00 0.00 0.00 45 1052.1
20260503171434 15 15 0.0 0.0 0.00 0.00 0.00 45 1052.1
20260503170833 16 326 0.0 0.0 0.00 0.00 0.00 44 1052.5
20260503170233 16 14 0.0 0.0 0.00 0.00 0.00 44 1052.5
20260503150634 13 85 0.0 0.0 0.00 0.00 0.00 53 1053.2
20260503150134 13 132 0.0 0.0 0.00 0.00 0.00 53 1053.2
20260503131234 9 350 0.0 0.0 0.00 0.00 0.00 81 1052.8
20260503130734 9 18 0.0 0.0 0.00 0.00 0.00 84 1052.8
20260503130233 8 29 0.0 0.0 0.00 0.00 0.00 86 1052.8
20260503110634 5 29 0.0 0.0 0.00 0.00 0.00 93 1051.8
20260503110135 6 29 0.0 0.0 0.00 0.00 0.00 91 1051.8
20260503100135 6 29 0.0 0.0 0.00 0.00 0.00 91 1051.1